Home   Weather   McComb   Past weeks
Flag for USA

Past Weather in McComb, Mississippi, USA — Yesterday and Last 2 Weeks

Now
34 °F

Clear.


Feels Like: 34 °F
Forecast: 62 / 33 °F
Wind: No wind

Location: McComb / Pike County Airport

Current Time: Feb 28, 2020 at 1:12:27 am

Latest Report: Feb 27, 2020 at 11:53 pm


Visibility: 10 mi

Pressure: 30.31 "Hg

Humidity: 85%

Dew Point: 30 °F

Location of McCombLocation

Past Weather in McComb — Graph

°F

McComb Temperature Yesterday

Maximum temperature yesterday: 53 °F (at 2:53 pm)
Minimum temperature yesterday: 31 °F (at 6:53 am)
Average temperature yesterday: 41 °F

High & Low Weather Summary for the Past Weeks

 TemperatureHumidityPressure
High76 °F (Feb 18, 3:53 pm)100% (Feb 17, 1:21 am)30.58 "Hg (Feb 17, 1:21 am)
Low30 °F (Feb 22, 3:53 am)25% (Feb 15, 1:53 pm)29.74 "Hg (Feb 24, 2:53 pm)
Average53 °F79%30.14 "Hg
* Reported Feb 12 11:26 pm — Feb 27 11:53 pm, McComb. Weather by CustomWeather, © 2020

Note: Actual official high and low records may vary slightly from our data, if they occured in-between our weather recording intervals... More about our weather records

McComb Weather History for the Previous 24 Hours

Scroll right to see more
 ConditionsComfort  
Time TempWeatherWind HumidityBarometerVisibility
11:53 pm
Thu, Feb 27
34 °FClear.No wind85%30.31 "Hg10 mi
10:53 pm33 °FClear.No wind88%30.32 "Hg10 mi
9:53 pm36 °FClear.No wind79%30.32 "Hg10 mi
8:53 pm38 °FClear.No wind73%30.32 "Hg10 mi
7:53 pm41 °FClear.5 mph62%30.31 "Hg10 mi
6:53 pm45 °FClear.7 mph49%30.29 "Hg10 mi
5:53 pm48 °FSunny.7 mph44%30.27 "Hg10 mi
4:53 pm52 °FSunny.8 mph35%30.27 "Hg10 mi
3:53 pm53 °FSunny.3 mph34%30.26 "Hg10 mi
2:53 pm53 °FSunny.5 mph32%30.27 "Hg10 mi
1:53 pm52 °FSunny.9 mph35%30.29 "Hg10 mi
12:53 pm50 °FSunny.9 mph41%30.32 "Hg10 mi
11:53 am48 °FSunny.7 mph44%30.36 "Hg10 mi
10:53 am45 °FPassing clouds.3 mph49%30.38 "Hg10 mi
9:53 am44 °FSunny.7 mph49%30.39 "Hg10 mi
8:53 am41 °FSunny.6 mph58%30.39 "Hg10 mi
7:53 am37 °FSunny.5 mph73%30.38 "Hg10 mi
6:53 am31 °FSunny.3 mph85%30.37 "Hg10 mi
5:53 am32 °FClear.3 mph82%30.34 "Hg10 mi
4:53 am33 °FClear.6 mph82%30.33 "Hg10 mi
3:53 am34 °FPassing clouds.7 mph79%30.31 "Hg10 mi
2:53 am35 °FClear.5 mph78%30.32 "Hg10 mi
1:53 am36 °FPassing clouds.6 mph79%30.32 "Hg10 mi
Weather by CustomWeather, © 2020

See weather overview

Advertising